Weather History for KSGF - November, 2011

Change the Weather History Date:

Thursday, November 3, 2011

  Actual Average Record
Temperature  
Mean Temperature 40 °F 52 °F  
Max Temperature 46 °F 63 °F 80 °F (1978)
Min Temperature 33 °F 41 °F 12 °F (1991)
Degree Days  
Heating Degree Days 25 13  
Month to date heating degree days 38 39  
Since 1 July heating degree days 382 347  
Cooling Degree Days 0 0  
Month to date cooling degree days 0 0  
Year to date cooling degree days 1818 1387  
Moisture  
Dew Point 36 °F    
Average Humidity 79    
Maximum Humidity 100    
Minimum Humidity 58    
Precipitation  
Precipitation 0.10 in 0.13 in 2.63 in (1974)
Month to date precipitation 0.51 0.40  
Year to date precipitation 33.00 38.71  
Snow  
Snow T in - - ()
Month to date snowfall T  
Since 1 July snowfall T  
Since 1 September snowfall T  
Snow Depth 0.00 in    
Sea Level Pressure  
Sea Level Pressure 30.04 in    
Wind  
Wind Speed 14 mph (NW)    
Max Wind Speed 28 mph    
Max Gust Speed 36 mph    
Visibility 8 miles    
Events Rain    
T = Trace of Precipitation, MM = Missing Value Source: NWS Daily Summary

Daily Weather History Graph

Daily Weather History Graph

Search for Another Location

Airport or City:

Trip Planner

Search our weather history database for the weather conditions in past years. The results will help you decide how hot, cold, wet, or windy it might be!

Date:

Astronomy

Nov. 03, 2011 Rise Set
Actual Time 7:39 AM CDT 6:13 PM CDT
Civil Twilight 7:12 AM CDT 6:40 PM CDT
Nautical Twilight 6:41 AM CDT 7:11 PM CDT
Astronomical Twilight 6:11 AM CDT 7:42 PM CDT
Moon 2:30 PM CDT (11/3) 1:01 AM CDT (11/3)
Length of Visible Light 11h 28m
Length of Day
10h 34m
First Quarter, 60% of the Moon is Illuminated
Nov 3
First Quarter
Nov 10
Full
Nov 18
Last Quarter
Nov 25
New
Dec 2
First Quarter

Hourly Weather History & Observations

Time (CDT) Temp. Windchill Dew Point Humidity Pressure Visibility Wind Dir Wind Speed Gust Speed Precip Events Conditions
12:52 AM 43.0 °F 37.2 °F 43.0 °F 100% 29.83 in 4.0 mi NW 10.4 mph - 0.01 in Rain Light Rain
1:09 AM 42.8 °F 37.5 °F 42.8 °F 100% 29.86 in 9.0 mi WNW 9.2 mph - 0.00 in   Overcast
1:29 AM 41.0 °F 32.2 °F 39.2 °F 93% 29.88 in 8.0 mi West 18.4 mph 26.5 mph 0.00 in   Overcast
1:52 AM 39.9 °F 29.7 °F 39.0 °F 97% 29.88 in 5.0 mi West 23.0 mph 29.9 mph 0.01 in Rain Light Rain
2:47 AM 37.4 °F 28.2 °F 37.4 °F 100% 29.91 in 7.0 mi WNW 16.1 mph 34.5 mph 0.01 in Rain Light Rain
2:52 AM 37.9 °F 28.9 °F 36.0 °F 93% 29.91 in 9.0 mi WNW 16.1 mph 27.6 mph 0.01 in Rain Light Rain
3:11 AM 37.4 °F 27.8 °F 35.6 °F 93% 29.92 in 10.0 mi WNW 17.3 mph 26.5 mph 0.01 in Rain Light Rain
3:52 AM 37.0 °F 27.4 °F 36.0 °F 96% 29.92 in 7.0 mi WNW 17.3 mph 24.2 mph 0.02 in Rain Light Rain
4:52 AM 36.0 °F 27.1 °F 35.1 °F 97% 29.94 in 4.0 mi WNW 13.8 mph 23.0 mph 0.00 in Rain Light Rain
5:52 AM 34.0 °F 25.0 °F 33.1 °F 96% 29.98 in 6.0 mi WNW 12.7 mph 20.7 mph 0.02 in Rain Light Rain
6:13 AM 33.8 °F 25.3 °F 33.8 °F 100% 29.98 in 4.0 mi WNW 11.5 mph 20.7 mph 0.00 in Rain Light Freezing Rain
6:52 AM 34.0 °F 24.6 °F 33.1 °F 96% 30.00 in 4.0 mi WNW 13.8 mph - 0.01 in Rain Light Freezing Rain
7:52 AM 36.0 °F 26.0 °F 36.0 °F 100% 30.01 in 3.0 mi WNW 17.3 mph 21.9 mph 0.02 in Rain Light Freezing Rain
8:16 AM 37.4 °F 29.3 °F 35.6 °F 93% 30.01 in 4.0 mi NW 12.7 mph 20.7 mph 0.01 in Rain Light Rain
8:52 AM 39.0 °F 28.8 °F 37.0 °F 93% 30.03 in 10.0 mi NW 21.9 mph 32.2 mph 0.01 in   Overcast
9:15 AM 39.2 °F 29.6 °F 35.6 °F 87% 30.03 in 10.0 mi NW 19.6 mph 29.9 mph N/A   Overcast
9:52 AM 39.0 °F 30.6 °F 36.0 °F 89% 30.06 in 10.0 mi WNW 15.0 mph 24.2 mph N/A   Overcast
10:52 AM 39.0 °F 29.9 °F 36.0 °F 89% 30.09 in 10.0 mi NW 17.3 mph 24.2 mph N/A   Overcast
11:52 AM 39.9 °F 30.5 °F 36.0 °F 86% 30.10 in 10.0 mi NW 19.6 mph 27.6 mph 0.00 in   Overcast
12:52 PM 41.0 °F 32.5 °F 35.1 °F 79% 30.11 in 10.0 mi NW 17.3 mph 32.2 mph N/A   Overcast
1:52 PM 42.8 °F 35.1 °F 35.6 °F 76% 30.09 in 10.0 mi NW 16.1 mph 25.3 mph N/A   Overcast
2:52 PM 44.1 °F 36.2 °F 35.1 °F 71% 30.12 in 10.0 mi NW 18.4 mph 25.3 mph N/A   Overcast
3:24 PM 44.6 °F 37.2 °F 35.6 °F 71% 30.11 in 10.0 mi NW 17.3 mph 21.9 mph N/A   Overcast
3:52 PM 45.0 °F 38.5 °F 35.1 °F 68% 30.13 in 10.0 mi NW 13.8 mph 20.7 mph N/A   Overcast
4:52 PM 46.0 °F 38.8 °F 34.0 °F 63% 30.15 in 10.0 mi NNW 18.4 mph 25.3 mph N/A   Overcast
5:52 PM 44.6 °F 39.7 °F 35.6 °F 71% 30.15 in 10.0 mi NNW 9.2 mph - N/A   Overcast
6:52 PM 46.0 °F 41.0 °F 33.1 °F 61% 30.19 in 10.0 mi NNW 10.4 mph - N/A   Overcast
7:52 PM 46.0 °F 41.0 °F 32.0 °F 58% 30.20 in 10.0 mi North 10.4 mph - N/A   Overcast
8:52 PM 45.0 °F 40.6 °F 33.1 °F 63% 30.21 in 10.0 mi NNW 8.1 mph - N/A   Overcast
9:52 PM 44.6 °F 40.2 °F 32.0 °F 61% 30.19 in 10.0 mi North 8.1 mph - N/A   Overcast
10:52 PM 44.1 °F 40.1 °F 33.1 °F 65% 30.22 in 10.0 mi North 6.9 mph - N/A   Overcast
11:52 PM 45.0 °F 40.6 °F 33.1 °F 63% 30.22 in 10.0 mi North 8.1 mph - N/A   Overcast